Location: Kimberly
(42.5380°N, 114.3640°W)
Time: 22:39:00
(UTC-06:00)

Envisat - Visible Passes

Search period start: 02 October 2023 00:00
Search period end: 12 October 2023 00:00
Orbit: 763 x 764 km, 98.2° (Epoch: 02 October)

Date Brightness Start Highest point End Pass type
(mag) Time Alt. Az. Time Alt. Az. Time Alt. Az.
02 Oct 5.3 04:09:17 10° NE 04:12:42 18° E 04:13:48 17° ESE visible
02 Oct 3.0 05:47:03 10° N 05:52:00 55° WNW 05:53:57 34° SW visible
03 Oct 3.2 05:09:47 10° NNE 05:14:51 68° ESE 05:16:11 47° SSE visible
03 Oct 4.6 06:50:13 10° NNW 06:53:16 16° WNW 06:56:19 10° W visible
04 Oct 4.6 04:33:02 10° NE 04:37:30 30° E 04:38:25 28° ESE visible
04 Oct 3.7 06:11:57 10° N 06:16:27 33° WNW 06:18:35 24° WSW visible
05 Oct 5.6 03:57:26 10° ENE 03:59:56 14° E 04:00:39 13° E visible
05 Oct 2.8 05:34:22 10° N 05:39:26 72° WNW 05:40:48 48° SW visible
06 Oct 3.6 04:57:15 10° NNE 05:02:12 51° E 05:03:02 46° SE visible
06 Oct 4.3 06:37:07 10° NNW 06:40:48 21° WNW 06:43:11 15° W visible
07 Oct 5.0 04:20:45 10° NE 04:24:46 23° E 04:25:15 23° ESE visible
07 Oct 3.3 05:59:09 10° N 06:03:54 42° WNW 06:05:24 34° WSW visible
08 Oct 2.9 05:21:43 10° NNE 05:26:49 88° ESE 05:27:37 64° S visible
08 Oct 4.8 07:02:54 10° NNW 07:05:03 13° WNW 07:07:11 10° W visible
09 Oct 4.1 04:44:46 10° NNE 04:49:32 39° E 04:49:51 39° ESE visible
09 Oct 4.0 06:24:09 10° N 06:28:18 26° WNW 06:30:00 22° W visible
10 Oct 5.3 04:08:36 10° NE 04:12:02 18° E 04:12:03 18° E visible
10 Oct 3.0 05:46:23 10° N 05:51:20 55° WNW 05:52:13 48° WSW visible
11 Oct 3.2 05:09:07 10° NNE 05:14:11 68° ESE 05:14:25 67° ESE visible
11 Oct 4.5 06:49:32 10° NNW 06:52:35 16° WNW 06:54:35 13° W visible
